Showing default

OPS 7034 (TRANSIT 18), 3133

Orbit data source: Space-Track

OPS 7034 (TRANSIT 18), 3133 is a payload satellite owned by USN NAVAIR (US) in LEO that was launched on Sat, 02 Mar 1968 UTC via an SCOUT A launch vehicle from the Air Force Western Test Range (AFWTR). Payload-class satellites include a variety of spacecraft equipped with specific instruments for various scientific and technological missions. These include communications satellites like Starlink; space stations such as the ISS; scientific satellites like the Hubble; Earth observation satellites from companies like Planet Labs, Umbra, and HawkEye 360; GPS; miniature CubeSats for education and research; and military/defense satellites.

Loading next visibility...
Identifier
3133, 1968-012A
Orbit
LEO
Country
Flag of USUS
Related business
Manufacturer
RCA/East Windsor
Mission
Spacecraft
Bus & Motor
TRANSIT 5, Unknown motor
Mass
60 kg wet, 60 kg dry
Launch date (UTC)
1968-03-02 (58 years ago)
Launch vehicle
SCOUT A
Launch site
Air Force Western Test Range (AFWTR)
Object type
Payload
Rocket body
Debris
Shape & HBR
Unknown
Radar Cross Section
Large (>1 m²)

Expand to show TLE details & history
Last TLE update: 10 hours ago

TLE from 10 hours ago
0 OPS 7034 (TRANSIT 18)
1 03133U 68012A   25293.99572375  .00000213  00000-0  30822-3 0  9999
2 03133  90.0208 273.5093 0072820 324.8035  97.4583 13.51549106562064
Epoch: 2025-10-20T23:53Z
TLE epoch observation values (Epoch: 2025-10-20T23:53:50.531Z)
Latitude
63.17324°
Longitude
-114.6822°
Altitude
1,084.936 km
Speed
7.312 km/s
True Right ascension
18h 13m 52s
True Declination
63° 02' 26"
Sunlit
Object was in daylight at epoch
Visualization orbit readout
Latitude
Unknown
Longitude
Unknown
Altitude
Unknown
Speed
Unknown
Apparent Right ascension
Unknown
Apparent Declination
Unknown
Sunlit
N/A
Visualization observer readout
Local Sidereal Time
04:43:22
Azimuth
Unknown
Elevation
Unknown
Doppler factor
Unknown
Orbital elements
Apogee altitude
1,117.803 km
Perigee altitude
1,009.421 km
Semi-major axis
7,441.749 km
Eccentricity
0.00728
Inclination
90.0208°
RAAN
273.5093°
Arg. of periapsis
324.8035°
True anomaly
98.28469°
Mean anomaly
97.4583°
Eccentric anomaly
97.8716°
Mean motion
3.38089 °/min
Orbital period
106.48 mins
BSTAR
0.00030822
Loading maneuver chart data...
Computing Atmospheric mass density...
Loading historical data...
Loading historical data...
Loading historical data...
Loading historical data...
Loading historical data...
Loading historical data...
Loading historical data...

Documentation

Showing up to 5 results
|